Theta_e
338 339 339 339 337 334 333 330 327 324 322 320 318 316 315 314 312 311 311 310 308 309
338 339 338 337 335 333 331 328 324 322 320 318 317 316 314 313 310 310 309 309 308 308
338 338 335 334 332 330 328 325 323 321 318 316 315 314 313 310 309 309 308 308 306 304
335 333 333 331 329 327 325 324 322 319 317 315 314 313 311 310 310 309 306 305 302 300
333 333 331 328 327 326 322 323 322 318 316 315 314 312 312 312 310 306 303 301 298 297
332 331 328 326 325 324 321 319 319 317 316 315 314 313 313 310 306 303 300 297 295 293
331 328 325 324 322 320 319 316 316 315 315 314 314 312 309 305 301 298 296 295 294 294
325 325 324 321 319 317 316 314 312 312 313 314 313 309 305 302 299 296 293 293 295 296
325 323 320 315 313 312 311 310 310 311 312 310 310 304 304 302 297 295 290 288 289 291
320 315 313 312 311 309 307 307 307 309 309 306 304 301 301 300 293 289 287 287 287 288
314 311 310 308 306 305 305 305 305 305 305 302 300 297 296 295 289 288 287 287 286 285
311 308 307 304 302 301 301 301 301 303 302 298 294 295 294 291 288 287 287 288 288 287
309 305 302 301 301 300 299 299 301 300 300 297 293 294 293 291 290 288 288 287 288 296
305 303 301 299 298 297 296 295 294 293 295 296 293 293 294 293 289 288 288 288 288 290
Wind_Speed
9 8 10 12 12 11 10 11 11 9 10 8 9 9 8 6 6 7 6 7 6 5
10 14 12 14 12 9 12 11 12 13 11 9 10 9 8 7 7 7 5 6 6 6
12 14 14 14 13 14 12 12 13 13 13 10 10 9 9 8 7 9 5 5 8 6
14 15 15 15 15 15 15 12 13 14 12 11 10 7 9 10 9 9 7 6 9 8
15 17 16 16 15 17 16 11 12 14 13 11 9 7 11 11 8 8 8 6 9 8
18 16 15 16 15 14 17 13 12 13 14 11 9 11 11 11 10 9 9 8 8 5
18 18 17 14 14 16 14 13 12 12 11 10 12 13 13 12 11 10 9 7 7 6
19 19 19 16 15 16 13 11 12 14 12 12 13 10 12 11 10 10 9 6 7 7
20 20 19 18 18 17 15 13 13 15 14 13 9 17 17 14 10 9 7 7 7 5
23 22 21 19 18 17 15 13 15 14 14 14 13 20 17 16 10 8 7 7 5 6
26 23 21 21 20 18 14 14 14 14 15 15 12 21 18 18 9 8 7 6 6 5
25 24 22 21 19 17 15 14 13 13 16 16 12 20 17 14 8 7 6 5 4 5
24 27 23 21 18 13 15 14 13 14 13 17 13 14 13 11 7 6 5 4 5 10
24 23 19 20 18 15 15 17 15 14 10 11 10 8 10 8 6 5 4 4 4 3
Wind_Direction
158 144 143 146 148 141 138 131 131 125 111 118 107 88 93 88 79 84 84 87 67 73
148 147 151 144 142 132 131 132 132 122 119 102 98 99 97 94 83 82 75 71 67 63
153 141 142 131 134 132 124 132 128 121 112 111 104 103 104 96 77 81 58 69 74 61
145 139 137 136 134 129 130 133 136 118 117 113 107 108 103 88 87 82 79 68 78 65
142 141 136 138 140 138 126 140 138 121 115 110 116 117 97 91 88 97 87 72 71 53
146 137 129 130 135 135 124 124 130 118 113 125 122 95 91 96 94 87 79 67 67 56
144 131 123 129 122 120 113 122 119 109 115 114 106 106 106 106 101 91 77 70 64 62
131 128 126 124 110 106 121 114 118 107 102 110 108 112 110 108 104 93 78 57 60 54
140 128 123 118 120 119 118 114 110 107 113 105 104 110 112 111 105 93 96 85 64 54
127 125 127 127 125 121 116 119 114 112 111 102 108 106 106 105 94 102 92 86 83 57
127 127 127 127 126 119 119 117 113 115 110 107 112 108 104 98 99 91 90 100 89 94
130 125 126 122 113 115 117 114 114 110 110 111 118 113 111 111 98 97 99 91 96 91
128 124 118 116 117 118 114 116 105 101 109 123 124 117 113 106 114 107 95 59 55 80
116 114 112 120 114 115 122 102 99 97 97 112 117 105 110 118 113 129 108 89 71 80